Date,TemperatureHighF,TemperatureAvgF,TemperatureLowF,DewpointHighF,DewpointAvgF,DewpointLowF,HumidityHigh,HumidityAvg,HumidityLow,PressureMaxIn,PressureMinIn,WindSpeedMaxMPH,WindSpeedAvgMPH,GustSpeedMaxMPH,PrecipitationSumIn
2013-3-30,74.1,64.3,55.4,54.5,44.7,35.0,95,53,32,29.21,29.05,8,0,10,0.40
2013-3-31,68.0,60.1,55.0,60.5,54.7,51.0,98,84,59,29.05,28.89,11,0,11,0.23
2013-4-1,72.5,60.8,51.2,56.5,46.2,36.0,99,65,29,29.07,28.90,12,1,12,0.01
2013-4-2,65.0,53.1,43.4,43.0,32.8,26.0,79,50,24,29.21,29.06,10,1,10,0.00
2013-4-3,61.0,50.2,41.0,45.0,33.3,28.0,88,55,31,29.21,29.11,7,0,7,0.12
2013-4-4,46.1,42.4,39.8,44.0,40.1,38.0,95,92,88,29.18,29.00,10,0,10,0.38
2013-4-5,67.1,50.5,40.0,47.5,40.6,35.0,98,73,34,29.10,28.97,8,1,8,0.05
2013-4-6,73.3,54.8,36.7,45.0,38.3,33.0,97,61,25,29.22,29.10,12,1,13,0.00
2013-4-7,75.4,58.2,41.2,50.0,44.3,39.0,94,64,33,29.24,29.08,12,1,12,0.00
2013-4-8,77.1,62.7,48.7,56.5,50.2,47.0,95,67,39,29.19,29.07,15,1,15,0.00
2013-4-9,82.7,65.9,50.7,59.5,53.2,49.0,97,68,37,29.22,29.09,10,0,10,0.00
2013-4-10,85.0,68.4,52.5,60.0,54.9,50.5,97,66,36,29.16,28.96,13,1,13,0.00
2013-4-11,79.7,66.7,55.7,66.7,59.0,53.0,97,78,53,28.99,28.68,17,1,18,1.27
2013-4-12,68.7,60.7,53.5,63.5,49.4,37.0,98,71,34,28.98,28.69,14,1,14,0.06
2013-4-13,75.6,59.8,45.4,43.0,39.1,32.0,85,52,25,29.08,28.96,13,1,13,0.00
2013-4-14,60.7,53.0,44.1,54.5,47.8,41.0,93,83,58,29.09,28.92,5,0,9,0.12
2013-4-15,75.8,63.4,55.2,58.0,56.2,53.0,97,80,52,29.18,28.96,10,0,10,0.00
2013-4-16,81.9,68.5,57.9,62.5,60.2,56.5,97,77,50,29.27,29.17,10,1,10,0.00
2013-4-17,84.9,70.9,60.4,64.0,61.3,59.0,96,74,46,29.26,29.11,10,1,10,0.00
2013-4-18,80.1,69.6,58.4,61.5,58.1,54.5,98,70,43,29.12,28.93,16,2,17,0.00
2013-4-19,71.9,58.4,44.0,66.0,52.9,39.0,95,83,62,29.08,28.82,14,1,14,0.48
2013-4-20,63.5,49.8,35.6,39.0,33.6,31.0,89,57,30,29.26,29.07,10,1,10,0.00
2013-4-21,68.9,53.9,37.1,41.0,37.6,35.0,96,59,31,29.36,29.25,14,1,14,0.00
2013-4-22,70.0,58.2,48.5,47.5,41.7,36.0,76,55,39,29.35,29.17,13,1,13,0.00
2013-4-23,74.4,58.6,42.4,49.0,43.0,38.0,86,59,36,29.27,29.10,10,1,10,0.00
2013-4-24,73.8,61.3,51.0,62.0,55.1,47.5,96,82,52,29.19,29.10,19,1,19,0.06
2013-4-25,70.9,55.3,43.3,52.0,40.3,31.0,92,63,25,29.34,29.18,7,1,7,0.01
2013-4-26,76.1,57.3,38.3,49.0,39.8,35.0,93,58,27,29.40,29.27,12,1,12,0.00
2013-4-27,70.2,62.6,56.4,55.0,50.7,44.0,85,66,49,29.36,29.17,11,1,11,0.06
2013-4-28,59.0,57.1,56.0,58.0,56.3,54.0,100,97,85,29.23,29.03,7,0,7,1.36
2013-4-29,74.2,61.5,55.4,63.0,57.1,54.0,100,87,50,29.09,28.96,9,0,9,0.00
2013-4-30,57.9,54.8,53.1,56.5,53.8,51.0,98,96,94,29.06,29.00,2,0,3,0.05
2013-5-3,73.7,72.4,71.3,56.5,55.3,54.5,56,55,54,29.02,28.99,0,0,0,0.00
2013-5-4,71.3,66.7,63.6,54.5,52.1,49.0,69,60,56,29.00,28.89,0,0,0,0.23
2013-5-5,66.2,60.7,48.3,54.5,51.4,47.5,97,72,50,28.90,28.78,10,0,10,0.51
2013-5-6,55.9,50.1,45.5,51.0,48.0,45.0,99,93,76,28.94,28.84,7,0,7,0.28
2013-5-7,68.4,57.1,48.2,56.0,51.4,48.0,100,83,52,29.03,28.91,6,0,6,0.00
2013-5-8,75.8,62.5,48.3,58.0,53.9,47.5,98,76,48,29.11,29.01,10,0,10,0.00
2013-5-9,82.2,67.0,53.1,62.5,56.1,51.0,98,72,40,29.16,29.08,7,0,8,0.00
2013-5-10,77.2,66.6,54.6,63.0,57.4,53.5,97,75,50,29.14,29.00,10,0,10,0.00
2013-5-11,75.2,66.0,57.5,65.0,60.9,56.5,97,84,66,29.04,28.92,11,0,12,0.15
2013-5-12,68.4,59.4,50.3,60.0,46.9,35.0,99,69,32,29.15,28.99,8,0,8,0.02
2013-5-13,67.7,54.6,38.9,44.0,37.9,35.0,96,58,30,29.28,29.14,8,0,8,0.00
2013-5-14,78.3,61.3,42.1,55.0,47.2,40.0,96,65,37,29.29,29.13,10,0,11,0.00
2013-5-15,85.5,69.9,55.7,59.0,55.2,52.0,92,64,34,29.22,29.05,3,0,11,0.00
2013-5-16,82.7,68.7,58.3,63.5,58.5,56.0,94,73,44,29.14,29.02,13,0,13,0.00
2013-5-17,81.5,68.7,56.9,65.5,58.9,51.0,96,74,37,29.14,29.06,13,0,13,0.00
2013-5-18,72.8,67.5,62.6,66.3,64.4,61.0,98,90,77,29.14,29.08,9,1,10,0.10
2013-5-19,68.8,66.4,62.6,68.0,65.6,62.5,100,97,93,29.17,29.04,8,1,8,0.01
2013-5-20,83.2,71.6,61.7,72.0,66.6,61.5,100,86,59,29.16,29.05,7,0,7,0.57
2013-5-21,86.5,74.1,62.7,72.7,67.4,62.0,99,82,52,29.09,28.94,8,0,8,0.03
2013-5-22,86.6,74.5,63.7,69.3,64.8,61.5,98,75,44,29.03,28.90,12,1,13,0.00
2013-5-23,82.5,73.7,66.4,66.7,61.6,55.0,95,68,43,29.04,28.96,10,0,10,0.01
2013-5-24,73.3,66.3,58.4,57.0,51.1,44.0,82,60,41,29.25,29.03,11,1,11,0.00
2013-5-25,77.9,62.4,46.0,50.0,45.6,41.0,93,58,29,29.35,29.23,8,0,8,0.00
2013-5-26,83.2,66.2,49.2,56.5,50.0,46.0,96,62,28,29.31,29.18,7,0,7,0.00
2013-5-27,85.5,69.7,54.3,61.5,56.4,53.0,95,67,34,29.27,29.13,10,0,10,0.00
2013-5-28,85.5,72.9,61.7,63.5,58.2,53.0,91,64,33,29.23,29.14,12,1,12,0.00
2013-5-29,82.7,72.6,61.7,64.5,61.3,57.0,92,69,45,29.26,29.15,13,1,14,0.00
2013-5-30,82.7,73.9,65.3,66.3,63.8,61.5,91,72,51,29.28,29.15,9,0,9,0.00
2013-5-31,84.1,75.4,68.4,66.7,64.0,61.0,88,69,47,29.24,29.11,12,1,12,0.00
2013-6-1,83.8,75.0,66.0,68.5,65.8,62.5,92,74,54,29.15,29.03,12,1,12,0.00
2013-6-2,85.2,73.7,66.9,72.3,67.9,66.0,98,83,58,29.05,28.91,10,1,10,1.05
2013-6-3,82.1,72.5,66.2,73.7,67.8,65.0,99,86,61,29.02,28.92,4,0,4,0.19
2013-6-4,85.5,73.9,62.9,69.0,65.7,62.0,98,78,52,29.06,28.99,5,0,5,0.00
2013-6-5,82.6,73.5,68.5,72.7,69.3,66.3,98,87,67,29.08,28.94,8,0,8,0.54
2013-6-6,79.8,72.3,67.5,72.0,69.2,67.0,99,91,71,28.97,28.80,7,0,7,0.25
2013-6-7,84.2,72.5,67.4,72.3,69.1,66.7,98,90,63,28.92,28.75,6,0,7,0.14
2013-6-8,83.3,74.0,67.2,72.7,69.5,66.7,99,87,63,29.13,28.92,6,0,6,0.01
2013-6-9,83.1,72.6,67.4,73.7,70.5,66.3,99,94,69,29.15,29.05,10,0,10,0.12
2013-6-10,81.4,74.7,68.3,76.0,72.4,67.0,99,93,80,29.11,28.99,11,1,11,0.02
2013-6-11,91.5,81.3,74.1,79.3,75.5,73.3,98,84,63,29.10,29.01,8,0,9,0.01
2013-6-12,93.1,81.8,72.9,79.7,75.8,72.3,99,83,60,29.12,29.02,6,0,6,0.01
2013-6-13,91.5,81.6,71.6,75.5,73.0,64.5,96,77,53,29.04,28.80,19,0,19,0.01
2013-6-14,84.0,78.4,67.7,65.5,63.1,60.0,87,61,46,29.06,28.96,8,0,8,0.00
2013-6-15,85.3,73.0,61.5,65.5,62.2,59.0,98,72,44,29.18,29.05,8,0,8,0.01
2013-6-16,86.1,73.5,60.8,71.3,66.3,60.0,98,80,51,29.20,29.06,8,0,8,0.01
2013-6-17,83.9,71.9,67.1,75.5,69.8,66.3,99,94,70,29.16,28.99,11,0,11,0.01
2013-6-18,83.4,72.6,67.5,76.3,71.1,67.0,100,95,72,29.04,28.91,11,0,12,0.01
2013-6-19,81.2,72.9,67.1,73.0,69.9,67.0,100,91,70,29.14,28.97,7,0,8,0.01
2013-6-20,83.6,73.7,64.4,70.0,67.0,64.0,100,82,56,29.24,29.13,10,0,10,0.01
2013-6-21,84.2,73.7,63.7,69.0,65.2,63.0,99,77,51,29.29,29.19,10,0,10,0.01
2013-6-22,85.0,73.5,63.1,67.0,63.7,59.5,99,74,44,29.27,29.14,7,0,8,0.01
2013-6-23,83.2,73.6,65.1,70.5,67.6,64.0,98,83,62,29.26,29.14,9,0,9,0.00
2013-6-24,79.9,72.2,67.3,74.3,70.4,66.7,99,94,76,29.27,29.17,6,0,6,0.01
2013-6-25,85.5,74.1,66.2,75.5,70.5,66.0,100,90,64,29.22,29.09,6,0,6,0.01
2013-6-26,86.8,76.9,68.0,77.0,72.0,67.5,100,86,64,29.15,28.99,7,0,7,0.00
2013-6-27,84.8,78.6,72.3,76.5,73.4,70.5,98,84,69,29.05,28.88,8,0,9,0.01
2013-6-28,89.1,78.7,69.3,78.3,71.9,66.3,100,81,56,28.94,28.72,8,0,8,0.00
2013-6-29,86.7,76.9,68.9,72.0,68.2,65.0,96,76,52,28.79,28.72,6,0,7,0.01
2013-6-30,86.2,74.6,64.4,71.3,66.9,61.5,99,79,45,28.87,28.76,6,0,8,0.00
2013-7-1,81.6,71.9,66.0,72.0,68.7,64.5,97,89,68,28.97,28.84,6,0,8,0.01
2013-7-2,83.4,75.1,67.1,71.3,69.1,66.3,98,83,57,29.13,28.97,8,1,9,0.01
2013-7-3,73.9,69.8,66.6,71.7,68.8,66.3,100,97,83,29.22,29.11,8,0,8,0.04
2013-7-4,75.2,70.9,67.4,74.7,70.8,67.5,100,100,96,29.22,29.12,8,0,9,0.04
2013-7-5,81.6,73.4,70.7,76.8,72.8,70.5,100,98,83,29.25,29.17,14,0,14,0.04
2013-7-6,79.9,74.7,71.1,78.3,74.2,71.0,100,98,92,29.22,29.13,8,0,8,0.03
2013-7-7,79.6,75.3,72.6,77.0,74.7,72.7,100,98,89,29.24,29.16,5,0,5,0.02
2013-7-8,88.5,78.8,71.7,78.0,74.3,71.7,100,88,61,29.25,29.14,7,0,7,0.02
2013-7-9,87.7,79.1,72.3,77.0,74.8,72.0,100,88,66,29.23,29.11,6,0,6,0.02
2013-7-10,90.5,78.5,73.1,78.0,74.4,71.7,100,88,59,29.17,29.02,10,0,10,0.01
2013-7-11,79.8,74.0,69.8,74.7,72.1,68.5,98,94,81,29.05,28.94,4,0,4,0.01
2013-7-12,87.0,76.4,69.8,76.8,71.8,64.5,100,87,61,29.02,28.92,8,0,8,0.01
2013-7-13,78.3,72.4,67.6,72.0,69.2,66.0,97,90,79,29.13,29.01,8,0,9,0.00
2013-7-14,81.8,75.6,71.6,74.7,72.1,69.7,96,89,74,29.25,29.10,10,0,11,0.01
2013-7-15,86.3,77.4,71.2,73.0,71.6,69.7,97,83,64,29.33,29.24,10,1,12,0.01
2013-7-16,87.4,77.5,69.0,73.3,70.5,67.5,99,81,55,29.37,29.28,8,0,8,0.00
2013-7-17,90.3,75.8,66.5,76.0,69.9,66.0,99,85,57,29.34,29.18,9,0,9,0.01
2013-7-18,86.9,75.7,66.3,75.0,70.6,66.0,100,87,61,29.26,29.11,9,0,9,0.01
2013-7-19,89.7,77.5,69.9,76.0,72.3,69.0,100,86,58,29.19,29.05,7,0,7,0.01
2013-7-20,87.8,74.3,69.4,76.0,71.5,68.0,100,92,66,29.11,29.02,7,0,7,0.01
2013-7-21,85.8,74.7,69.6,78.0,72.2,69.0,100,94,66,29.11,28.98,8,0,8,0.00
2013-7-22,83.1,73.8,69.1,75.0,71.5,69.0,100,94,74,29.09,28.98,7,0,7,0.00
2013-7-23,81.0,75.0,71.0,74.0,71.0,69.0,96,88,74,29.05,28.91,6,0,6,0.01
2013-7-24,81.9,75.3,69.5,75.0,71.7,69.0,98,90,77,28.97,28.87,4,0,4,0.00
2013-7-25,89.0,76.9,68.2,72.0,69.8,67.0,99,81,53,29.07,28.91,6,0,6,0.01
2013-7-26,87.1,74.2,66.3,75.0,70.3,65.0,98,89,62,29.13,29.03,7,0,9,0.00
2013-7-27,79.3,73.3,68.4,73.0,69.8,67.0,100,90,72,29.07,28.97,4,0,5,0.00
2013-7-28,87.1,74.7,66.9,73.0,69.6,66.0,100,87,59,29.10,29.00,8,0,8,0.02
2013-7-29,84.6,73.3,65.1,69.0,64.1,55.0,97,77,38,29.23,29.09,6,0,6,0.00
2013-7-30,89.5,73.5,59.4,71.0,63.9,58.0,99,77,35,29.27,29.15,4,0,4,0.00
2013-7-31,74.5,71.8,69.5,74.0,70.9,68.0,100,98,90,29.21,29.04,5,0,5,0.00
2013-8-1,85.0,75.7,70.8,76.0,72.9,69.0,100,92,74,29.07,28.98,4,0,4,0.00
2013-8-2,88.9,75.6,67.0,74.0,69.0,66.0,100,83,52,29.11,29.00,4,0,4,0.00
2013-8-3,85.5,74.6,64.9,74.0,69.6,64.0,100,86,64,29.13,29.06,6,0,6,0.56
2013-8-4,86.9,77.8,71.6,75.0,71.7,67.0,97,84,63,29.11,29.02,6,0,6,0.00
2013-8-5,86.8,75.4,67.4,74.0,69.4,66.0,96,83,63,29.12,29.03,6,0,6,0.00
2013-8-6,87.4,77.1,70.1,76.0,70.9,69.0,97,83,59,29.09,29.02,4,0,4,0.00
2013-8-7,82.0,74.6,71.5,76.0,72.6,69.0,100,95,80,29.12,29.04,7,0,7,0.37
2013-8-8,82.3,75.2,72.6,79.0,74.4,72.0,100,99,90,29.13,29.07,6,0,6,0.12
2013-8-9,89.4,79.3,72.8,78.0,74.7,72.0,100,88,62,29.16,29.07,8,0,8,0.00
2013-8-10,91.4,78.7,71.4,78.0,73.7,71.0,100,87,62,29.20,29.13,4,0,7,0.02
2013-8-11,89.9,78.7,70.3,77.0,72.6,70.0,100,84,58,29.23,29.12,8,0,8,0.00
2013-8-12,87.8,75.7,70.7,77.0,72.7,70.0,99,92,68,29.19,29.07,7,0,7,0.29
2013-8-13,85.3,76.0,69.8,76.0,72.5,69.0,100,91,72,29.10,28.95,5,0,5,0.00
2013-8-14,80.6,74.8,71.2,73.0,71.4,67.0,97,90,76,29.09,28.96,4,0,4,0.00
2013-8-15,74.0,70.3,67.9,67.0,62.7,58.0,92,78,59,29.15,29.06,8,1,9,0.00
2013-8-16,67.8,65.7,62.5,64.0,61.5,60.0,97,87,79,29.18,29.09,8,0,8,0.01
2013-8-17,66.2,63.9,61.7,65.0,61.9,59.0,100,94,83,29.21,29.14,8,0,8,0.19
2013-8-18,75.3,69.6,65.3,72.0,68.3,65.0,100,97,87,29.26,29.16,4,0,4,0.14
2013-8-19,81.3,73.4,68.9,76.0,71.6,69.0,100,95,81,29.21,29.10,7,0,7,1.23
2013-8-20,80.4,74.8,71.6,75.0,72.4,71.0,99,93,82,29.24,29.15,5,0,5,0.00
2013-8-21,84.3,75.6,70.3,75.0,72.3,69.0,99,91,71,29.30,29.17,7,0,7,0.00
2013-8-22,88.8,76.4,69.8,77.0,72.3,69.0,100,90,60,29.24,29.12,8,0,8,0.44
2013-8-23,88.2,76.3,68.0,78.0,72.1,68.0,100,89,64,29.16,29.04,5,0,5,0.10
2013-8-24,83.5,75.3,69.4,73.0,69.5,67.0,100,84,62,29.32,29.10,8,0,8,0.02
2013-8-25,83.1,72.4,63.8,68.0,63.9,61.0,94,77,51,29.43,29.30,8,0,8,0.01
2013-8-26,80.8,68.8,58.1,66.0,62.1,57.0,100,82,55,29.38,29.22,6,0,6,0.00
2013-8-27,85.4,71.3,59.7,71.0,65.9,59.0,99,85,57,29.25,29.10,4,0,4,0.00
2013-8-28,88.2,75.7,66.7,74.0,69.9,66.0,100,85,58,29.14,29.05,5,0,5,0.00
2013-8-29,90.6,78.2,69.9,75.0,72.2,69.0,99,84,59,29.10,29.00,5,0,5,0.00
2013-8-30,83.2,76.6,71.7,76.0,73.4,71.0,99,91,77,29.10,29.00,5,0,5,0.00
2013-8-31,88.5,76.6,69.8,77.0,72.7,67.0,100,90,64,29.05,28.95,6,0,6,0.21
2013-9-1,82.4,73.2,68.8,78.0,72.3,68.0,100,98,86,29.02,28.93,6,0,6,0.07
2013-9-2,78.8,72.6,69.7,75.0,71.4,69.0,100,98,86,29.07,28.95,6,0,6,0.01
2013-9-3,87.6,76.6,70.2,78.0,72.8,70.0,100,90,68,29.06,28.96,4,0,4,0.00
2013-9-4,88.6,74.5,65.9,74.0,68.8,66.0,100,85,56,29.17,29.05,4,0,4,0.00
2013-9-5,87.3,74.2,65.9,73.0,68.5,65.0,100,85,54,29.20,29.13,6,0,6,0.01
2013-9-6,86.6,73.6,64.2,70.0,67.1,63.0,100,83,54,29.23,29.12,10,0,10,0.00
2013-9-7,95.8,73.9,62.9,72.0,66.9,62.0,100,82,45,29.20,29.07,5,0,5,0.19
2013-9-8,89.0,73.9,62.9,73.0,67.9,62.0,100,84,56,29.11,29.01,6,0,6,0.00
2013-9-9,87.8,74.8,66.5,73.0,69.4,66.0,99,85,57,29.19,29.06,6,0,7,0.00
2013-9-10,86.0,73.9,66.2,74.0,69.6,66.0,100,89,61,29.29,29.18,6,0,7,0.01
2013-9-11,87.8,73.9,64.5,74.0,67.7,64.0,100,84,50,29.30,29.17,7,0,7,0.00
2013-9-12,87.6,74.6,64.4,72.0,68.2,64.0,100,83,57,29.19,28.99,6,0,6,0.00
2013-9-13,85.0,73.3,62.6,70.0,64.7,56.0,96,77,50,29.02,28.89,8,0,8,0.00
2013-9-14,78.8,65.5,53.3,61.0,56.1,51.0,98,75,46,29.15,28.98,11,0,11,0.00
2013-9-15,79.7,68.7,58.6,71.0,64.3,57.0,98,88,68,29.24,29.14,8,0,8,0.00
2013-9-16,86.5,72.5,64.9,72.0,64.8,61.0,99,80,45,29.22,29.13,6,0,6,0.00
2013-9-17,76.4,69.2,63.0,64.0,61.9,60.0,96,79,61,29.30,29.18,11,1,11,0.00
2013-9-18,74.3,67.7,62.7,64.0,60.7,58.0,94,79,66,29.31,29.19,7,0,7,0.00
2013-9-19,82.5,68.6,58.1,67.0,62.0,57.0,99,82,53,29.26,29.14,6,0,6,0.00
2013-9-20,84.7,71.1,60.2,68.0,64.1,59.0,99,82,51,29.17,28.98,6,0,8,0.00
2013-9-21,70.3,66.9,64.0,70.0,65.8,64.0,100,98,90,29.01,28.81,9,0,9,0.86
2013-9-22,80.9,66.2,57.2,68.0,61.7,57.0,100,88,57,28.97,28.84,6,0,6,0.08
2013-9-23,80.0,66.2,56.1,64.0,59.9,55.0,100,83,54,29.09,28.96,7,0,7,0.01
2013-9-24,69.2,66.2,64.0,65.0,62.4,61.0,98,89,78,29.11,28.96,6,0,6,0.01
2013-9-25,65.3,63.9,62.9,65.0,63.4,63.0,100,100,97,28.97,28.91,7,0,7,0.02
2013-9-26,77.3,67.2,58.7,68.0,64.0,59.0,100,91,72,29.09,28.95,5,0,5,0.01
2013-9-27,78.7,67.1,57.2,66.0,60.5,57.0,100,82,51,29.21,29.08,6,0,7,0.02
2013-9-28,75.7,62.9,54.5,59.0,56.7,54.0,100,83,54,29.29,29.18,11,0,11,0.00
2013-9-29,75.5,61.3,52.0,59.0,55.2,51.0,100,84,51,29.23,29.10,8,0,8,0.00
2013-9-30,74.4,62.6,52.9,61.0,57.2,52.0,99,85,57,29.17,29.06,8,0,8,0.00
2013-10-1,80.6,64.9,54.5,65.0,60.1,54.0,100,87,55,29.23,29.12,7,0,7,0.00
2013-10-2,81.4,66.8,55.5,67.0,61.8,55.0,100,87,53,29.24,29.13,5,0,5,0.00
2013-10-3,82.0,69.4,61.6,68.0,63.3,61.0,100,84,51,29.22,29.13,10,0,10,0.00
2013-10-4,84.0,68.3,58.2,71.0,63.6,57.0,100,87,54,29.24,29.15,6,0,6,0.00
2013-10-5,85.2,69.9,59.1,69.0,63.7,58.0,100,84,52,29.21,29.08,9,0,9,0.00
2013-10-6,81.9,68.2,59.5,69.0,63.7,59.0,99,88,60,29.11,28.93,8,0,8,1.43
2013-10-7,70.6,62.3,54.9,65.0,58.6,52.0,100,89,66,29.04,28.90,5,0,7,0.39
2013-10-8,75.7,63.4,53.6,59.0,55.7,52.0,96,78,55,29.21,29.04,10,0,10,0.02
2013-10-9,73.6,62.0,53.3,59.0,52.7,47.0,95,74,45,29.27,29.17,8,0,8,0.00
2013-10-10,77.2,62.1,50.9,62.0,56.4,50.0,99,84,55,29.22,29.08,7,0,7,0.00
2013-10-11,77.7,62.6,53.2,61.0,55.9,52.0,100,82,46,29.14,29.04,8,0,8,0.00
2013-10-12,79.0,63.7,53.7,62.0,57.6,53.0,99,84,54,29.18,29.07,5,0,5,0.00
2013-10-13,81.5,65.5,54.3,65.0,59.5,53.0,100,84,52,29.26,29.15,5,0,5,0.00
2013-10-14,73.8,64.9,57.8,63.0,60.5,57.0,99,88,67,29.28,29.18,8,0,8,0.00
2013-10-15,66.9,63.4,61.0,61.0,59.7,59.0,97,89,78,29.23,29.12,6,0,6,0.00
2013-10-16,73.0,63.4,54.5,64.0,59.4,54.0,99,89,65,29.15,29.03,5,0,5,0.00
2013-10-17,68.2,64.8,59.7,68.0,64.2,59.0,100,99,96,29.05,28.97,4,0,6,0.20
2013-10-18,70.1,58.9,52.2,59.0,55.1,52.0,100,89,61,29.10,29.01,5,0,5,0.05
2013-10-19,62.8,57.3,53.0,58.0,55.3,52.0,100,94,83,29.06,29.00,6,0,6,0.01
2013-10-20,70.0,53.2,43.1,53.0,46.3,42.0,100,82,41,29.14,29.05,5,0,5,0.01
2013-10-21,70.2,53.9,40.4,58.0,49.2,40.0,100,87,56,29.20,29.08,7,0,7,0.01
2013-10-22,72.1,59.8,53.6,59.0,54.8,51.0,100,86,49,29.11,28.93,6,0,6,0.00
2013-10-23,61.2,52.2,39.8,51.0,44.3,37.0,97,78,47,29.16,28.92,10,0,10,0.01
2013-10-24,62.0,46.5,34.7,45.0,39.3,33.0,99,80,44,29.27,29.14,8,0,8,0.00
2013-10-25,56.4,44.2,34.1,44.0,33.9,29.0,95,69,40,29.44,29.26,7,0,7,0.00
2013-10-26,59.9,42.8,30.1,43.0,35.1,29.0,98,77,40,29.39,29.22,9,0,9,0.06
2013-10-27,67.1,51.6,38.2,56.0,47.1,37.0,98,86,60,29.23,29.17,8,0,8,0.00
2013-10-28,63.9,56.6,52.5,60.0,54.9,51.0,100,94,77,29.34,29.19,5,0,5,0.11
2013-10-29,73.4,60.0,50.3,62.0,56.4,50.0,100,90,60,29.39,29.29,7,0,7,0.00
2013-10-30,77.8,61.9,51.8,62.0,56.6,52.0,100,85,51,29.37,29.22,8,0,8,0.00
2013-10-31,72.9,64.2,55.4,64.0,59.2,54.0,98,85,72,29.26,28.93,13,1,13,0.00
2013-11-1,76.2,65.6,52.3,65.0,58.6,50.0,99,81,49,28.94,28.79,18,1,18,0.34
2013-11-2,68.5,54.2,44.6,53.0,45.6,41.0,98,76,39,29.14,28.90,11,0,12,0.01
2013-11-3,66.2,49.5,38.8,46.0,40.7,38.0,98,76,37,29.36,29.13,6,0,6,0.00
2013-11-4,64.6,49.2,38.1,43.0,39.5,37.0,98,73,40,29.49,29.36,8,0,10,0.00
2013-11-5,67.7,51.6,43.0,46.0,38.5,35.0,83,63,36,29.52,29.38,8,0,8,0.00
2013-11-6,73.8,58.9,50.0,59.0,53.2,46.0,95,83,59,29.40,29.18,10,0,10,0.01
2013-11-7,60.6,54.2,40.1,59.0,48.9,36.0,99,84,57,29.29,29.10,6,1,7,0.10
2013-11-8,63.9,45.4,33.4,37.0,33.4,28.0,95,67,29,29.40,29.27,7,0,7,0.00
2013-11-9,59.6,45.4,33.3,44.0,37.4,32.0,98,76,42,29.42,29.27,6,0,6,0.00
2013-11-10,70.5,53.1,42.8,45.0,42.3,39.0,95,71,37,29.35,29.24,5,0,5,0.00
2013-11-11,67.7,48.3,35.3,41.0,37.2,33.0,98,71,30,29.38,29.24,7,0,7,0.00
2013-11-12,60.4,42.7,31.1,44.0,33.7,18.0,98,72,50,29.50,29.20,10,1,10,0.00
2013-11-13,51.1,34.8,24.7,24.0,20.4,16.0,84,58,26,29.62,29.49,3,0,5,0.00
2013-11-14,60.5,37.6,22.9,29.0,24.1,21.0,95,64,21,29.54,29.36,5,0,7,0.00
2013-11-15,49.2,43.5,32.7,47.0,39.8,28.0,98,86,61,29.37,29.21,4,0,4,0.22
2013-11-16,62.1,54.2,46.6,58.0,52.8,46.0,100,96,86,29.29,29.20,5,0,5,0.01
2013-11-17,67.3,61.3,56.7,67.0,60.4,55.0,100,98,95,29.24,28.99,6,0,7,0.07
2013-11-18,69.8,61.5,49.5,69.0,49.5,36.0,100,70,35,29.13,28.97,9,1,9,0.04
2013-11-19,60.7,48.1,39.0,39.0,35.0,32.0,81,62,36,29.23,29.11,6,0,6,0.00
2013-11-20,57.1,47.1,37.9,36.0,33.2,31.0,82,59,43,29.39,29.23,10,0,10,0.00
2013-11-21,55.5,50.7,47.3,47.0,42.5,35.0,89,74,56,29.46,29.37,7,0,7,0.00
2013-11-22,62.9,55.7,49.8,58.0,53.1,47.0,98,92,83,29.41,29.25,5,0,5,0.10
2013-11-23,58.1,50.6,38.2,58.0,45.6,29.0,99,84,64,29.33,29.20,8,1,8,0.00
2013-11-24,46.3,35.0,27.3,29.0,20.8,16.0,77,56,32,29.52,29.31,8,1,8,0.00
2013-11-25,43.1,35.8,26.9,29.0,20.0,14.0,80,52,34,29.51,29.26,9,0,9,0.00
2013-11-26,47.4,39.2,33.1,47.0,38.6,29.0,100,97,77,29.26,28.74,6,0,8,1.40
2013-11-27,41.9,33.3,25.8,42.0,28.7,18.0,100,82,64,29.31,28.74,12,2,12,0.19
2013-11-28,48.7,31.4,21.1,28.0,22.4,16.0,92,71,38,29.52,29.31,5,0,5,0.00
2013-11-29,60.9,37.9,23.3,35.0,27.9,23.0,97,73,27,29.57,29.47,5,0,5,0.00
2013-11-30,52.9,40.0,30.3,32.0,29.2,28.0,94,67,38,29.60,29.39,7,0,7,0.00
2013-12-1,57.0,45.1,37.7,40.0,35.1,29.0,89,68,52,29.40,29.09,6,0,6,0.00
2013-12-2,50.5,46.8,41.6,50.0,45.6,39.0,100,96,88,29.10,28.89,4,0,4,0.35
2013-12-3,56.6,52.9,49.9,56.0,52.7,50.0,100,100,98,28.98,28.90,6,0,6,0.24
2013-12-4,71.8,60.6,54.4,67.0,58.7,54.0,100,95,77,29.11,28.98,9,0,9,0.02
2013-12-5,72.8,67.1,62.2,70.0,66.3,62.0,100,98,90,29.16,29.05,9,1,9,0.75
2013-12-6,76.2,69.7,53.7,70.0,67.1,53.0,100,92,79,29.15,29.04,14,2,15,0.37
2013-12-7,53.7,43.4,40.1,53.0,41.8,39.0,99,95,86,29.36,29.14,8,1,8,0.02
2013-12-8,48.3,45.2,41.9,48.0,45.3,42.0,100,100,99,29.35,29.23,7,0,7,0.18
2013-12-9,51.2,45.9,41.1,51.0,45.8,41.0,100,100,100,29.25,29.08,5,0,6,1.08
2013-12-10,52.1,45.4,30.1,52.0,42.4,29.0,100,90,64,29.40,29.02,13,1,13,0.20
2013-12-11,57.9,38.9,26.1,39.0,32.2,26.0,100,80,38,29.49,29.37,5,0,5,0.00
2013-12-12,47.3,35.9,30.0,32.0,26.2,21.0,96,69,40,29.51,29.40,8,1,8,0.00
2013-12-13,59.2,40.3,25.0,36.0,26.8,21.0,88,61,27,29.44,29.21,6,0,6,0.00
2013-12-14,49.9,46.9,43.7,50.0,43.5,32.0,100,89,60,29.23,28.89,5,0,5,0.66
2013-12-15,50.3,39.2,31.2,50.0,36.0,28.0,100,88,78,29.26,28.91,11,1,11,0.00
2013-12-16,56.8,37.7,29.0,36.0,31.6,28.0,98,81,43,29.32,29.23,6,0,6,0.00
2013-12-17,63.8,44.2,27.9,40.0,34.2,28.0,100,72,38,29.28,29.15,10,1,11,0.00
2013-12-18,53.9,40.6,30.1,33.0,25.6,21.0,81,57,28,29.40,29.25,8,1,8,0.00
2013-12-19,64.1,41.1,26.3,35.0,28.8,24.0,94,67,26,29.39,29.25,8,0,8,0.00
2013-12-20,60.5,46.5,33.4,50.0,41.5,31.0,93,83,68,29.29,29.18,6,0,6,0.00
2013-12-21,69.8,60.1,47.6,66.0,57.9,47.0,100,93,85,29.18,28.99,16,1,17,0.03
2013-12-22,70.1,61.1,56.4,66.0,59.6,56.0,100,97,87,29.16,28.96,16,1,16,2.82
2013-12-23,56.9,48.1,35.2,57.0,46.0,31.0,100,93,84,29.33,29.11,9,1,9,0.00
2013-12-24,40.1,33.2,26.7,31.0,26.3,21.0,90,75,52,29.46,29.31,12,2,12,0.00
2013-12-25,46.7,32.4,22.9,28.0,23.7,21.0,94,71,42,29.52,29.38,7,0,7,0.00
2013-12-26,55.6,38.6,27.5,32.0,28.6,24.0,91,70,39,29.43,29.32,6,0,6,0.00
2013-12-27,53.9,36.3,25.9,35.0,28.7,24.0,97,77,40,29.51,29.38,5,0,5,0.00
2013-12-28,45.7,37.2,28.8,40.0,34.0,28.0,99,88,58,29.45,29.05,6,0,6,0.78
2013-12-29,48.0,43.0,40.0,46.0,42.3,40.0,100,97,91,29.12,28.93,5,0,5,0.12
2013-12-30,48.1,42.3,37.4,44.0,40.6,37.0,100,94,85,29.28,29.11,5,0,5,0.00
2013-12-31,45.4,38.9,31.5,38.0,32.5,28.0,94,78,49,29.44,29.26,10,1,10,0.00
2014-1-1,49.1,39.7,29.7,39.0,33.2,28.0,97,79,56,29.41,29.18,6,0,6,0.00
2014-1-2,50.7,41.7,25.3,50.0,38.8,18.0,100,89,70,29.20,28.84,13,1,13,0.23